FENGYUN 1C DEB, 31228

Orbit data source: Space-Track

FENGYUN 1C DEB, 31228 is space debris in SSO originally from a launch on Mon, 10 May 1999 UTC launched from the Taiyaun Space Center, China (TSC). Fengyun 1C debris stems from the Chinese weather satellite Fengyun-1C, which was intentionally destroyed by a Chinese anti-satellite missile in 2007. This event dramatically increased the amount of space debris, with thousands of trackable fragments posing hazards to satellites and human spaceflight. The Fengyun 1C debris cloud has become a focal point in discussions about space sustainability and the need for international regulations to prevent the creation of new debris.

Loading next visibility...
Identifier
31228, 1999-025BLJ
Orbit
SSO
Country
Flag of CNCN / PRC
Related business
Manufacturer
Unknown
Mission
Spacecraft
Bus & Motor
Unknown
Mass
Unknown
Launch date (UTC)
1999-05-10 (27 years ago)
Launch vehicle
Unknown
Launch site
Taiyaun Space Center, China (TSC)
Object type
Payload
Rocket body
Debris
Shape & HBR
Unknown shape, 0.1 m
Radar Cross Section
Small (<0.1 m²)

Expand to show TLE details & history
Last TLE update: 16 hours ago

TLE from 16 hours ago
0 FENGYUN 1C DEB
1 31228U 99025BLJ 26235.73088791  .00001049  00000-0  35213-3 0  9993
2 31228  98.8660 160.4243 0078853  57.2043 333.1280 14.37648038 12150
Epoch: 2026-08-23T17:32Z
TLE epoch observation values (Epoch: 2026-08-23T17:32:28.715Z)
Latitude
29.57823°
Longitude
-79.77007°
Altitude
719.804 km
Speed
7.525 km/s
True Right ascension
10h 21m 29s
True Declination
29° 25' 48"
Sunlit
Object was in daylight at epoch
Visualization orbit readout
Latitude
Unknown
Longitude
Unknown
Altitude
Unknown
Speed
Unknown
Apparent Right ascension
Unknown
Apparent Declination
Unknown
Sunlit
N/A
Visualization observer readout
Local Sidereal Time
00:23:40
Azimuth
Unknown
Elevation
Unknown
Doppler factor
Unknown
Orbital elements
Apogee altitude
819.736 km
Perigee altitude
707.109 km
Semi-major axis
7,141.559 km
Eccentricity
0.00789
Inclination
98.866°
RAAN
160.4243°
Arg. of periapsis
57.2043°
True anomaly
332.71596°
Mean anomaly
333.128°
Eccentric anomaly
332.92234°
Mean motion
3.59628 °/min
Orbital period
100.1 mins
BSTAR
0.00035213
Loading maneuver chart data...
Computing Atmospheric mass density...

Documentation

Showing up to 5 results
|